Location: Focicchia
(42.2496°N, 9.2935°E)
Time: 03:15:50
(UTC+00:00)

GP-B - Pass Details

Date: 07 June 2020
Orbit: 631 x 635 km, 89.8° (Epoch: 11 July)

Event Time Altitude Azimuth Distance (km) Brightness Sun altitude
Rises 00:35:31 0° 4° (N) 2,941 7.9 -22.8°
Reaches altitude 10° 00:37:46 10° 7° (N) 2,027 6.8 -22.6°
Maximum altitude 00:42:12 67° 90° (E) 691 3.3 -22.4°
Enters shadow 00:43:00 54° 144° (SE) 772 3.3 -22.3°
